Location: Boiro
(42.6475°N, 8.8834°W)
Time: 23:15:33
(UTC+01:00)

Tiros 1 - Pass Details

Date: 12 December 2021
Orbit: 629 x 664 km, 48.4° (Epoch: 18 January)

Event Time Altitude Azimuth Distance (km) Brightness Sun altitude
Rises 21:29:07 0° 295° (WNW) 2,929 11.3 -37.1°
Reaches altitude 10° 21:31:27 10° 298° (WNW) 2,024 10.3 -37.5°
Enters shadow 21:32:00 13° 299° (WNW) 1,811 10.0 -37.6°
Maximum altitude 21:36:05 67° 21° (NNE) 694 - -38.4°
Drops below altitude 10° 21:40:46 10° 105° (ESE) 2,039 - -39.2°
Sets 21:43:08 0° 108° (ESE) 2,954 - -39.7°
